Regional Weather Roundup
Issued by NWS Pendleton, OR

Home | Current Version | Previous Version | Text Only | Print | Product List | Glossary On
Versions: 1 2 3 4 5 6 7 8 9 10 11 12 13 14 15 16 17 18 19 20 21 22 23 24 25 26 27 28 29 30 31 32 33 34 35 36 37 38 39 40 41 42 43 44 45 46 47 48 49 50
000
ASUS46 KPDT 101704
RWRPDT
PENDLETON REGIONAL WEATHER ROUNDUP
NATIONAL WEATHER SERVICE PENDLETON OREGON
900 AM PST SAT DEC 10 2016

NOTE: FAIR INDICATES FEW OR NO CLOUDS BELOW 12,000 FEET WITH NO
SIGNIFICANT WEATHER AND/OR OBSTRUCTIONS TO VISIBILITY.

# INDICATES UNOFFICIAL STATION AND DATA

WAZ520-101810-
EAST SLOPES OF WASHINGTON CASCADES

CITY            SKY/WX      TMP DP  RH  WIND    PRES   REMARKS
#CLE ELUM HS    N/A         20  12  71  CALM    29.84R
#CLE ELUM LAKE  N/A         18  16  92  CALM    29.97R
#GLENWOOD       N/A         17  15  92  CALM    30.02R
#NELSON 3SW     N/A         15  13  92  CALM    30.21R
#RONALD 2NW     N/A         18  N/A N/A N1      29.80R
#TROUT LAKE 1NE N/A         20  18  92  CALM    30.02S
#TROUT LAKE 1E  N/A         17  15  92  CALM    29.92R
$$

WAZ521-101810-
SIMCOE HIGHLANDS

CITY            SKY/WX      TMP DP  RH  WIND    PRES   REMARKS
#CENTERVILLE 1SWN/A         19  16  88  CALM    29.99S
#GOLDENDALE 1NE N/A         19  15  84  SW5     N/A
#GOLDENDALE 4W  N/A         21   8  56  CALM    29.95R
#GOODNOE HILLS  N/A         24  19  81  NW5     29.85
#LYLE 6NE       N/A         22  21  96  CALM    29.99R
$$

WAZ026-101810-
KITTITAS VALLEY

CITY            SKY/WX      TMP DP  RH  WIND    PRES   REMARKS
ELLENSBURG AP   CLOUDY      17  14  88  W3      29.89R FOG
#ELLENSBURG CWU N/A         15  13  92  CALM    29.95R
#ELLENSBURG 3NE N/A         15  13  92  CALM    27.98R
#ELLENSBURG 1E  N/A         12  N/A N/A CALM    N/A
#KITTITAS 4N    N/A         14  10  84  CALM    29.92R
#KITTITAS 3S    N/A          6   3  87  CALM    30.01R
#THORP 6N       N/A         14  12  92  CALM    30.03R
$$

WAZ027-101810-
YAKIMA VALLEY

CITY            SKY/WX      TMP DP  RH  WIND    PRES   REMARKS
SUNNYSIDE AP    CLOUDY      19  17  92  CALM    29.98R
YAKIMA AIRPORT  FRZFOG      15  13  92  CALM    29.97R VSB 1/4
YAKIMA-VAGABOND LGT SNOW SH 10   8  91  CALM    29.92R
#DONALD 2NE     N/A         16   6  64  CALM    28.81R
#GRANDVIEW      N/A         21  18  88  CALM    30.05R
#MABTON         N/A         21  20  96  CALM    29.98R
#NACHES 2SW     N/A         11   9  91  CALM    29.88R
#TERRACE HTS    N/A         18  16  92  CALM    30.00R
#TOPPENISH      N/A         17  15  92  CALM    29.95R
#WEST VALLEY    N/A         11   9  91  CALM    30.02R
#W YAKIMA       N/A         17  15  92  CALM    30.05R
#WILEY CITY 3W  N/A         10   4  76  CALM    29.88S
$$

WAZ028-101810-
LOWER COLUMBIA BASIN...WASHINGTON

CITY            SKY/WX      TMP DP  RH  WIND    PRES   REMARKS
PASCO           CLOUDY      26  23  88  S7      30.01S
PROSSER AWOS    N/A         23  21  92  CALM    30.02R
RICHLAND AWOS   CLOUDY      28  24  85  S7      30.00S
#BENTON CITY    N/A         24  21  88  W1      29.93S
#CONNELL 5N     N/A         21  20  96  S1      30.00S
#CONNELL 5NW    N/A         21  19  92  S6      29.96F
#ELTOPIA 6NW    N/A         20  19  96  CALM    28.92S
#KAHLOTUS       N/A         20  19  96  W9      30.02R
#KENNEWICK 3S   N/A         24  22  92  CALM    30.03S
#PATERSON       N/A         26  23  88  CALM    30.01S
#SAGEMOOR 2W    N/A         17  15  92  CALM    29.85F
#TOUCHET 2S     N/A         19  17  92  SE1     30.03R
#WEST PASCO     N/A         27  24  88  CALM    29.99F
$$

WAZ029-101810-
FOOTHILLS OF THE BLUES...WASHINGTON

CITY            SKY/WX      TMP DP  RH  WIND    PRES   REMARKS
WALLA WALLA AP  MOCLDY      22  18  84  E6      29.96R
#CLYDE 6NW      N/A         21  19  92  CALM    30.02R
#DAYTON SCHOOL  N/A         22  15  74  SE2     29.95R
#LOWDEN 2SE     N/A         20  18  92  CALM    29.97R
#PLEASANT VIEW 1N/A         19  18  96  S2      30.07R
#PRESCOTT       N/A         24  22  92  CALM    30.03R
#WHITMAN COLLEGEN/A         24  22  92  S3      30.09R
#WAITSBURG 5S   N/A         21  20  96  CALM    30.14R
#WAITSBURG 8N   N/A         21  N/A N/A S3      29.76F
#WALLA WALLA 5E N/A         19  17  92  E5      N/A
#WALLA WALLA U  N/A         25  23  92  CALM    30.04R
#WHITMAN MISSIONN/A         21  19  92  CALM    30.06R
$$

WAZ030-101810-
BLUE MOUNTAINS...WASHINGTON

CITY            SKY/WX      TMP DP  RH  WIND    PRES   REMARKS
#DIXIE 5SE      N/A         18  16  92  S1      29.77R
$$

ORZ009-041-WAZ024-101810-
COLUMBIA RIVER GORGE

CITY            SKY/WX      TMP DP  RH  WIND    PRES   REMARKS
HOOD RIVER AP   LGT SNOW    21  19  92  CALM    30.00R
THE DALLES AP   MOCLDY      21  19  92  CALM    30.03R
#ARLINGTON AIRPON/A         26  23  88  CALM    30.05R
#ARLINGTON HS   N/A         24  19  81  CALM    29.96R
#CELILO DOT     N/A         27  21  78  W1      N/A
#LYLE           N/A         27  25  92  NE1     30.04R
#MOSIER 1S      N/A         24  19  81  CALM    N/A
#MURDOCK        N/A         25  22  88  CALM    30.01R
#RUFUS DOT      N/A         27  23  85  W5      N/A
#SMITHVILLE     N/A         22  21  96  CALM    29.99R

$$

ORZ510-101810-
NORTH CENTRAL OREGON

CITY            SKY/WX      TMP DP  RH  WIND    PRES   REMARKS
#ANTELOPE       N/A         21  18  88  CALM    29.95R
#CHENOWITH 1W   N/A         18  17  96  N5      N/A
#COW CYN RST AREN/A         30  N/A N/A SW2     N/A
#DUFUR 9E       N/A         24  20  84  CALM    30.08R
#GRASS VALLEY 1SN/A         20  18  92  S3      29.83R
#KENT DOT       N/A         19  14  80  N6      N/A
#MAUPIN SCHOOL  N/A         18  14  84  CALM    30.02R
#MORO SCHOOL    N/A         19  18  96  S2      29.89R
#SHANIKO 5WSW   N/A         32  21  63  N8      N/A
#SHANIKO 4NW    N/A         31  28  88  W10     29.83R
#TYGH VALLEY 2NEN/A         15  13  92  CALM    30.05R
#WAPANITIA AIRPON/A         11   8  87  CALM    30.07R
#WASCO DOT      N/A         14  11  88  SE2     N/A
#WASCO 5NE      N/A         14  11  88  N1      30.03R
$$

ORZ511-101810-
CENTRAL OREGON

CITY            SKY/WX      TMP DP  RH  WIND    PRES   REMARKS
BEND AIRPORT    PTCLDY      34  30  85  E6      29.88R
MADRAS AIRPORT  PTCLDY      18  16  92  MISG    29.92R
PRINEVILLE AP   CLOUDY      34  30  85  CALM    29.89R
REDMOND AIRPORT MOCLDY      35  27  72  CALM    29.88R
#ASHWOOD SCHOOL N/A         24  22  92  CALM    29.86S
#BEND 1SW       N/A         37  32  82  S2      N/A
#BEND-AWBREY    N/A         35  32  89  SE1     29.94R
#BEND-KIM LN    N/A         32  31  96  CALM    29.79R
#CULVER         N/A         19  16  88  CALM    30.00S
#CULVER 8W      N/A         25  17  71  CALM    29.89R
#LAKE BILLY CHINN/A         22  N/A N/A S3      30.06R
#MADRAS 4S      N/A         18  -3  38  NW5     29.98R
#POWELL BUTTE 3EN/A         35  30  82  W5      N/A
#POWELL BUTTE   N/A         38  27  64  W5      29.85R
#PRINEVILLE 3N  N/A         29  27  92  E6      29.99R

$$


ORZ509-101810-
EAST SLOPES OF OREGON CASCADES

CITY            SKY/WX      TMP DP  RH  WIND    PRES   REMARKS
SISTERS AWOS    N/A         34  30  85  CALM    29.85R
#BLUE BOX PASS  N/A         29  N/A N/A SW2     N/A
#CAMP SHERMAN   N/A         31  29  92  CALM    30.02R
#LA PINE DOT    N/A         33  30  89  SW1     N/A
#LA PINE 4NW    N/A         32  29  89  CALM    29.98R
#LAVA BUTTE DOT N/A         33  29  85  SE3     N/A
#SISTERS AIRPOR N/A         33  33  100 N2      30.17S
#SISTERS ODOT   N/A         30  N/A N/A E1      N/A
#SISTERS 3N     N/A         29  26  88  CALM    29.88S
#SUNRIVER       N/A         33  31  92  S3      29.95R
#TUMALO 3W      N/A         33  31  92  S3      29.85R
#WANOGA BUTTE D N/A         28  23  81  W12     N/A    WCI 18

$$

ORZ044-101810-
LOWER COLUMBIA BASIN...OREGON

CITY            SKY/WX      TMP DP  RH  WIND    PRES   REMARKS
HERMISTON       PTCLDY      23  21  92  S5      29.99R FOG
#BOARDMAN SCHOOLN/A         20  18  92  CALM    30.01S
#BOARDMAN 8SW   N/A         20  18  92  CALM    30.03R
#ECHO 8SW       N/A         17  14  88  S3      30.00R
#I-84 EX 198 DOTN/A         20  19  96  SW2     N/A
#UMATILLA       N/A         24  20  84  CALM    29.96S
$$

ORZ507-101810-
NORTHERN FOOTHILLS OF THE BLUES

CITY            SKY/WX      TMP DP  RH  WIND    PRES   REMARKS
PENDLETON AIRPT MOCLDY      18  17  96  CALM    29.94R FOG
#ADAMS 3WNW     N/A         14  12  92  CALM    30.02R
#ATHENA         N/A         19  17  92  CALM    30.07R
#CAYUSE         N/A         22  20  92  CALM    30.03R
#HELIX SCHOOL   N/A         16  14  92  N1      30.04R
#HELIX 3N       N/A         17  15  92  CALM    29.88R
#HOLDMAN 5SE    N/A         16  14  92  CALM    29.94R
#HOLDMAN 6E     N/A         17  16  96  CALM    29.83R
#M-F GROVE ELEM N/A         21  16  81  CALM    29.94R
#M-FREEWATER 5SEN/A         22  19  88  CALM    29.95R
#PENDLETON DNTN N/A         22  17  81  CALM    29.98R
#PDT AQUATIC CTRN/A         20  18  92  CALM    29.96R
#PDT SUNRIDGE   N/A         20  18  92  CALM    29.97R
#PENDLETON 7NW  N/A         18  12  77  CALM    31.59S
#PILOT ROCK 1S  N/A         25  19  78  NE2     29.94R
#PILOT ROCK     N/A         25  21  84  E5      29.95R
#TUTUILLA       N/A         22  19  88  CALM    30.01R
#UMAPINE 2E     N/A         17  15  92  CALM    29.97R
#WESTON SCHOOL  N/A         20  15  81  CALM    29.85R

$$

ORZ508-101810-
SOUTHERN FOOTHILLS OF THE BLUES

CITY            SKY/WX      TMP DP  RH  WIND    PRES   REMARKS
LEXINGTON       CLOUDY      23  23  100 CALM    29.96R
#AJAX           N/A         23  16  74  E1      27.65R
#CONDON SCHOOL  N/A         26  25  96  SW2     29.84R
#CONDON 5W      N/A         30  28  92  CALM    29.83R
#HEPPNER EOC    N/A         29  26  88  E7      29.96S
#HEPPNER 4NE    N/A         30  29  96  S1      30.05R
#LEXINGTON 2SE  N/A         24  20  84  CALM    29.91R
#MIKKALO        N/A         17  12  80  SE1     30.02S
#OLEX 4N        N/A         18  16  92  S3      29.95S
#RUGGS 5NE      N/A         32  31  96  S3      30.04R
#RUGGS 2SW      N/A         33  30  89  SW6     30.07R

$$

ORZ502-503-101810-
BLUE MOUNTAINS

CITY            SKY/WX      TMP DP  RH  WIND    PRES   REMARKS
MEACHAM         CLOUDY      30  26  85  CALM    29.84R
#BATTLE MTN DOT N/A         29  28  96  CALM    N/A
#LADD CYN SMT   N/A         34  29  82  W8      N/A
#LADD CREEK ODOTN/A         35  -11 13  CALM    N/A
#LONG CREEK HS  N/A         32  32  100 N5      29.86R
#N POWDER DOT   N/A         29  28  96  W1      N/A
#PIKES PEAK     N/A         24  22  92  S8      27.99S
#TOLLGATE       N/A         25  24  96  CALM    29.66R
#TROY SCHOOL    N/A         30  28  92  CALM    29.78R
#UKIAH          N/A         33  31  92  CALM    29.89R
#WESTON 4E      N/A         27  26  96  S7      29.97R
$$

ORZ505-101810-
JOHN DAY BASIN

CITY            SKY/WX      TMP DP  RH  WIND    PRES   REMARKS
JOHN DAY        PTCLDY      35  33  92  W8      29.87R
#ANTELOPE 9ESE  N/A         21  18  88  CALM    N/A
#DAYVILLE SCHOOLN/A         36  32  85  CALM    29.87R
#MITCHELL       N/A         32  32  100 CALM    30.07R
#MONUMENT HS    N/A         32  29  89  CALM    29.91R
#MT. VERNON 5SE N/A         33  30  89  W2      29.80R
#SPRAY SCHOOL   N/A         29  N/A N/A CALM    N/A
$$

ORZ506-101810-
OCHOCO AND JOHN DAY HIGHLANDS

CITY            SKY/WX      TMP DP  RH  WIND    PRES   REMARKS
#BUCK CREEK DOT N/A         38  37  96  SW8     N/A
#HORSE RIDGE DO N/A         34  29  82  NW6     N/A
#KEYES SMT DOT  N/A         31  28  88  SW9     N/A
#PAULINA SCHOOL N/A         36  33  89  SW5     N/A
#PINE MTN OBS   N/A         27  26  96  CALM    N/A
#PRAIRIE CITY   N/A         34  32  92  CALM    30.00R
#SENECA         N/A         36  N/A N/A N10     N/A
#SENECA 9NW     N/A         32  31  96  CALM    29.89R
$$

ORZ049-101810-
GRANDE RONDE VALLEY

CITY            SKY/WX      TMP DP  RH  WIND    PRES   REMARKS
LA GRANDE       MOCLDY      36  27  69  N9      29.86R
#COVE           N/A         34  34  100 N3      29.91R
#COVE SCHOOL    N/A         35  33  92  CALM    29.89R
#COVE 6NW       N/A         34  31  89  SW6     29.97R
#ELGIN 3N       N/A         34  31  89  SW5     29.84R
#ELGIN 1E       N/A         35  31  85  CALM    N/A
#IMBLER SCHOOL  N/A         33  31  92  CALM    29.83R
#ISLAND CITY 4N N/A         34  33  96  CALM    29.97R
#LADD CYN DOT   N/A         36  34  92  CALM    N/A
#UNION 1S       N/A         34  32  92  N1      29.98R
$$

ORZ050-101810-
WALLOWA COUNTY

CITY            SKY/WX      TMP DP  RH  WIND    PRES   REMARKS
JOSEPH AIRPORT  LGT SNOW    30  28  92  CALM    29.82R
#IMNAHA SCHOOL  N/A         31  29  92  E1      29.86R
#JOSEPH 3N      N/A         29  25  85  CALM    29.85R
#JOSEPH 3W      N/A         30  28  92  CALM    29.66R
#LOSTINE        N/A         26  24  92  CALM    29.78R
#LOSTINE 3SE    N/A         26  25  96  CALM    29.84R
#MT HOWARD 8000 N/A         22  19  88  W9G26   29.67R
#PROMISE 1S     N/A         31  28  88  E3      30.02R
#WALLOWA SCHOOL N/A         26  25  96  CALM    29.83R



$$



USA.gov is the U.S. government's official web portal to all federal, state and local government web resources and services.